Regional Weather Roundup
Issued by NWS

Home | Current Version | Previous Version | Text Only | Print | Product List | Glossary On
Versions: 1 2 3 4 5 6 7 8 9 10 11 12 13 14 15 16 17 18 19 20 21 22 23 24 25 26 27 28 29 30 31 32 33 34 35 36 37 38 39 40 41 42 43 44 45 46 47 48 49 50
000
ASUS44 KJAN 281410
RWRMS

MISSISSIPPI HOURLY WEATHER ROUNDUP
NATIONAL WEATHER SERVICE JACKSON MS
900 AM CDT FRI AUG 28 2015

NOTE: "FAIR: INDICATES FEW OR NO CLOUDS BELOW 12,000 FEET WITH NO
SIGNIFICANT WEATHER AND/OR OBSTRUCTIONS TO VISIBILITY.

MSZ001>002-007>008-010>013-018>021-025>028-034>036-281500-
NORTHWEST MISSISSIPPI

CITY           SKY/WX    TMP DP  RH WIND       PRES   REMARKS
CLARKSDALE     FAIR      70  64  83 NE6       30.08S
CLEVELAND      FAIR      71  64  76 NE3       30.06S
GREENWOOD      SUNNY     69  61  75 NE3       30.07R
GREENVILLE     SUNNY     72  63  73 NE5       30.05S
OLIVE BRANCH   MOSUNNY   70  64  83 E7        30.09R
OXFORD         FAIR      70  63  78 E5        30.10S
TUNICA         SUNNY     68  63  83 NE5       30.08S
$$

MSZ003>006-009-014>017-022>024-029>033-037>039-281500-
NORTHEAST MISSISSIPPI

CITY           SKY/WX    TMP DP  RH WIND       PRES   REMARKS
COLUMBUS AFB   SUNNY     71  65  82 VRB1      30.07R
CORINTH        FAIR      70  63  78 CALM      30.09S
GOLDN TRIANGLE MOSUNNY   72  63  73 E5        30.07R
STARKVILLE     FAIR      72  64  78 E3        30.08R
TUPELO         SUNNY     71  64  78 E3        30.08S
$$

MSZ040-058-281500-
CENTRAL MISSISSIPPI

CITY           SKY/WX    TMP DP  RH WIND       PRES   REMARKS
JACKSON INTL   SUNNY     76  61  59 NE3       30.05R
JACKSON HAWKNS SUNNY     75  61  61 E3        30.06R
MERIDIAN KEY   SUNNY     74  65  73 NE6       30.05S
MERIDIAN NAS   MOSUNNY   74  66  76 E3        30.06R
VICKSBURG      SUNNY     75  62  64 CALM      30.05R
$$

MSZ059>079-281500-
SOUTH MISSISSIPPI

CITY           SKY/WX    TMP DP  RH WIND       PRES   REMARKS
BROOKHAVEN     FAIR      73  63  68 NE3       30.07R
HATTIESBURG    SUNNY     73  63  70 VRB3      30.04R
MCCOMB         SUNNY     74  63  68 NE7       30.05R
NATCHEZ        SUNNY     73  61  64 E5        30.05S
PINE BELT      SUNNY     73  16  11 N3        30.05R
$$

MSZ080>082-281500-
COASTAL MISSISSIPPI

CITY           SKY/WX    TMP DP  RH WIND       PRES   REMARKS
BAY ST LOUIS   SUNNY     75  61  60 NE6       30.01R
BILOXI         SUNNY     76  65  69 NE6       30.00R
PASCAGOULA     SUNNY     76  66  71 NE5       30.01R
GULFPORT       SUNNY     77  64  64 NE6       30.00R
$$



USA.gov is the U.S. government's official web portal to all federal, state and local government web resources and services.